Time,TemperatureF,DewpointF,PressureIn,WindDirection,WindDirectionDegrees,WindSpeedMPH,WindSpeedGustMPH,Humidity,HourlyPrecipIn,Conditions,Clouds,dailyrainin,SoftwareType,DateUTC
2013-02-14 00:01:00,77.0,-99.9,30.08,ESE,113,6.0,7.0,-999,-99.99,,,-99.99,,2013-02-14 04:01:00,
2013-02-14 00:12:00,78.0,-99.9,30.08,ESE,115,6.0,8.0,-999,-99.99,,,-99.99,,2013-02-14 04:12:00,
2013-02-14 00:21:00,77.0,-99.9,30.07,ESE,113,8.0,11.0,-999,-99.99,,,-99.99,,2013-02-14 04:21:00,
2013-02-14 00:32:00,78.0,-99.9,30.07,ESE,122,8.0,15.0,-999,-99.99,,,-99.99,,2013-02-14 04:32:00,
2013-02-14 00:42:00,77.0,-99.9,30.07,SE,127,9.0,10.0,-999,-99.99,,,-99.99,,2013-02-14 04:42:00,
2013-02-14 00:52:00,77.0,-99.9,30.06,ESE,117,7.0,11.0,-999,-99.99,,,-99.99,,2013-02-14 04:52:00,
2013-02-14 01:02:00,77.0,-99.9,30.06,ESE,119,6.0,9.0,-999,-99.99,,,-99.99,,2013-02-14 05:02:00,
2013-02-14 01:11:00,76.0,-99.9,30.06,SSE,158,8.0,12.0,-999,-99.99,,,-99.99,,2013-02-14 05:11:00,
2013-02-14 01:22:00,76.0,-99.9,30.06,SE,135,8.0,9.0,-999,-99.99,,,-99.99,,2013-02-14 05:22:00,
2013-02-14 01:32:00,76.0,-99.9,30.06,SE,135,8.0,10.0,-999,-99.99,,,-99.99,,2013-02-14 05:32:00,
2013-02-14 01:42:00,76.0,-99.9,30.05,SE,139,7.0,11.0,-999,-99.99,,,-99.99,,2013-02-14 05:42:00,
2013-02-14 01:52:00,76.0,-99.9,30.05,ESE,120,6.0,8.0,-999,-99.99,,,-99.99,,2013-02-14 05:52:00,
2013-02-14 02:02:00,75.0,-99.9,30.05,SSE,156,6.0,9.0,-999,-99.99,,,-99.99,,2013-02-14 06:02:00,
2013-02-14 02:11:00,75.0,-99.9,30.04,SSE,167,6.0,8.0,-999,-99.99,,,-99.99,,2013-02-14 06:11:00,
2013-02-14 02:22:00,75.0,-99.9,30.04,SSE,165,5.0,7.0,-999,-99.99,,,-99.99,,2013-02-14 06:22:00,
2013-02-14 02:32:00,75.0,-99.9,30.04,SSE,153,6.0,7.0,-999,-99.99,,,-99.99,,2013-02-14 06:32:00,
2013-02-14 02:42:00,76.0,-99.9,30.04,SE,141,5.0,7.0,-999,-99.99,,,-99.99,,2013-02-14 06:42:00,
2013-02-14 02:52:00,76.0,-99.9,30.03,ESE,118,6.0,8.0,-999,-99.99,,,-99.99,,2013-02-14 06:52:00,
2013-02-14 03:01:00,75.0,-99.9,30.03,ESE,123,5.0,8.0,-999,-99.99,,,-99.99,,2013-02-14 07:01:00,
2013-02-14 03:11:00,76.0,-99.9,30.02,ESE,114,7.0,10.0,-999,-99.99,,,-99.99,,2013-02-14 07:11:00,
2013-02-14 03:22:00,76.0,-99.9,30.02,ESE,104,11.0,15.0,-999,-99.99,,,-99.99,,2013-02-14 07:22:00,
2013-02-14 03:32:00,76.0,-99.9,30.02,ESE,114,10.0,18.0,-999,-99.99,,,-99.99,,2013-02-14 07:32:00,
2013-02-14 03:42:00,76.0,-99.9,30.02,SE,124,11.0,15.0,-999,-99.99,,,-99.99,,2013-02-14 07:42:00,
2013-02-14 03:52:00,76.0,-99.9,30.01,SE,127,10.0,12.0,-999,-99.99,,,-99.99,,2013-02-14 07:52:00,
2013-02-14 04:01:00,76.0,-99.9,30.01,SE,131,11.0,13.0,-999,-99.99,,,-99.99,,2013-02-14 08:01:00,
2013-02-14 04:11:00,76.0,-99.9,30.01,ESE,117,12.0,15.0,-999,-99.99,,,-99.99,,2013-02-14 08:11:00,
2013-02-14 04:22:00,76.0,-99.9,30.01,ESE,122,9.0,11.0,-999,-99.99,,,-99.99,,2013-02-14 08:22:00,
2013-02-14 04:32:00,76.0,-99.9,30.01,SE,124,9.0,11.0,-999,-99.99,,,-99.99,,2013-02-14 08:32:00,
2013-02-14 04:43:00,76.0,-99.9,30.01,SE,129,8.0,13.0,-999,-99.99,,,-99.99,,2013-02-14 08:43:00,
2013-02-14 04:52:00,76.0,-99.9,30.01,SE,129,9.0,11.0,-999,-99.99,,,-99.99,,2013-02-14 08:52:00,
2013-02-14 05:02:00,76.0,-99.9,30.01,ESE,115,10.0,13.0,-999,-99.99,,,-99.99,,2013-02-14 09:02:00,
2013-02-14 05:12:00,76.0,-99.9,30.01,ESE,121,11.0,12.0,-999,-99.99,,,-99.99,,2013-02-14 09:12:00,
2013-02-14 05:21:00,76.0,-99.9,30.01,ESE,117,9.0,13.0,-999,-99.99,,,-99.99,,2013-02-14 09:21:00,
2013-02-14 05:32:00,76.0,-99.9,30.01,SE,128,9.0,11.0,-999,-99.99,,,-99.99,,2013-02-14 09:32:00,
2013-02-14 05:42:00,75.0,-99.9,30.01,SE,129,10.0,11.0,-999,-99.99,,,-99.99,,2013-02-14 09:42:00,
2013-02-14 05:52:00,76.0,-99.9,30.02,ESE,120,10.0,12.0,-999,-99.99,,,-99.99,,2013-02-14 09:52:00,
2013-02-14 06:02:00,75.0,-99.9,30.02,ESE,109,10.0,13.0,-999,-99.99,,,-99.99,,2013-02-14 10:02:00,
2013-02-14 06:11:00,76.0,-99.9,30.02,ESE,115,11.0,13.0,-999,-99.99,,,-99.99,,2013-02-14 10:11:00,
2013-02-14 06:22:00,75.0,-99.9,30.03,SE,127,9.0,10.0,-999,-99.99,,,-99.99,,2013-02-14 10:22:00,
2013-02-14 06:32:00,76.0,-99.9,30.03,ESE,108,11.0,14.0,-999,-99.99,,,-99.99,,2013-02-14 10:32:00,
2013-02-14 06:42:00,76.0,-99.9,30.03,ESE,109,11.0,15.0,-999,-99.99,,,-99.99,,2013-02-14 10:42:00,
2013-02-14 06:52:00,76.0,-99.9,30.04,East,99,11.0,14.0,-999,-99.99,,,-99.99,,2013-02-14 10:52:00,
2013-02-14 07:02:00,75.0,-99.9,30.04,East,94,9.0,12.0,-999,-99.99,,,-99.99,,2013-02-14 11:02:00,
2013-02-14 07:11:00,76.0,-99.9,30.05,ESE,120,9.0,11.0,-999,-99.99,,,-99.99,,2013-02-14 11:11:00,
2013-02-14 07:22:00,76.0,-99.9,30.05,SE,135,9.0,11.0,-999,-99.99,,,-99.99,,2013-02-14 11:22:00,
2013-02-14 07:32:00,75.0,-99.9,30.06,SE,140,8.0,11.0,-999,-99.99,,,-99.99,,2013-02-14 11:32:00,
2013-02-14 07:42:00,76.0,-99.9,30.06,SE,144,6.0,9.0,-999,-99.99,,,-99.99,,2013-02-14 11:42:00,
2013-02-14 07:52:00,76.0,-99.9,30.06,SE,140,7.0,8.0,-999,-99.99,,,-99.99,,2013-02-14 11:52:00,
2013-02-14 08:02:00,75.0,-99.9,30.07,SE,136,7.0,8.0,-999,-99.99,,,-99.99,,2013-02-14 12:02:00,
2013-02-14 08:12:00,76.0,-99.9,30.07,SE,132,4.0,8.0,-999,-99.99,,,-99.99,,2013-02-14 12:12:00,
2013-02-14 08:22:00,76.0,-99.9,30.08,SE,140,5.0,7.0,-999,-99.99,,,-99.99,,2013-02-14 12:22:00,
2013-02-14 08:32:00,76.0,-99.9,30.08,SE,139,6.0,8.0,-999,-99.99,,,-99.99,,2013-02-14 12:32:00,
2013-02-14 08:42:00,77.0,-99.9,30.08,ESE,120,6.0,8.0,-999,-99.99,,,-99.99,,2013-02-14 12:42:00,
2013-02-14 08:53:00,77.0,-99.9,30.08,SE,131,8.0,9.0,-999,-99.99,,,-99.99,,2013-02-14 12:53:00,
2013-02-14 09:02:00,77.0,-99.9,30.09,SE,124,7.0,10.0,-999,-99.99,,,-99.99,,2013-02-14 13:02:00,
2013-02-14 09:11:00,78.0,-99.9,30.09,ESE,115,9.0,12.0,-999,-99.99,,,-99.99,,2013-02-14 13:11:00,
2013-02-14 09:21:00,78.0,-99.9,30.09,ESE,109,11.0,13.0,-999,-99.99,,,-99.99,,2013-02-14 13:21:00,
2013-02-14 09:32:00,78.0,-99.9,30.09,East,92,8.0,12.0,-999,-99.99,,,-99.99,,2013-02-14 13:32:00,
2013-02-14 09:42:00,78.0,-99.9,30.10,East,98,12.0,15.0,-999,-99.99,,,-99.99,,2013-02-14 13:42:00,
2013-02-14 09:52:00,78.0,-99.9,30.10,East,94,12.0,17.0,-999,-99.99,,,-99.99,,2013-02-14 13:52:00,
2013-02-14 10:01:00,79.0,-99.9,30.10,East,85,9.0,17.0,-999,-99.99,,,-99.99,,2013-02-14 14:01:00,
2013-02-14 10:11:00,79.0,-99.9,30.10,East,93,14.0,17.0,-999,-99.99,,,-99.99,,2013-02-14 14:11:00,
2013-02-14 10:22:00,78.0,-99.9,30.10,ENE,75,9.0,19.0,-999,-99.99,,,-99.99,,2013-02-14 14:22:00,
2013-02-14 10:32:00,79.0,-99.9,30.10,East,97,15.0,20.0,-999,-99.99,,,-99.99,,2013-02-14 14:32:00,
2013-02-14 10:42:00,79.0,-99.9,30.11,ENE,70,9.0,20.0,-999,-99.99,,,-99.99,,2013-02-14 14:42:00,
2013-02-14 10:52:00,79.0,-99.9,30.11,ENE,73,9.0,16.0,-999,-99.99,,,-99.99,,2013-02-14 14:52:00,
2013-02-14 11:02:00,79.0,-99.9,30.11,ENE,68,9.0,17.0,-999,-99.99,,,-99.99,,2013-02-14 15:02:00,
2013-02-14 11:11:00,79.0,-99.9,30.11,East,82,10.0,15.0,-999,-99.99,,,-99.99,,2013-02-14 15:11:00,
2013-02-14 11:22:00,79.0,-99.9,30.11,East,80,11.0,20.0,-999,-99.99,,,-99.99,,2013-02-14 15:22:00,
2013-02-14 11:32:00,79.0,-99.9,30.10,East,80,10.0,17.0,-999,-99.99,,,-99.99,,2013-02-14 15:32:00,
2013-02-14 11:42:00,80.0,-99.9,30.10,ENE,76,9.0,15.0,-999,-99.99,,,-99.99,,2013-02-14 15:42:00,
2013-02-14 11:52:00,80.0,-99.9,30.10,East,83,10.0,18.0,-999,-99.99,,,-99.99,,2013-02-14 15:52:00,
2013-02-14 12:02:00,80.0,-99.9,30.10,East,83,13.0,21.0,-999,-99.99,,,-99.99,,2013-02-14 16:02:00,
2013-02-14 12:11:00,80.0,-99.9,30.09,East,89,13.0,21.0,-999,-99.99,,,-99.99,,2013-02-14 16:11:00,
2013-02-14 12:22:00,80.0,-99.9,30.09,ENE,75,11.0,16.0,-999,-99.99,,,-99.99,,2013-02-14 16:22:00,
2013-02-14 12:32:00,80.0,-99.9,30.09,ENE,78,10.0,16.0,-999,-99.99,,,-99.99,,2013-02-14 16:32:00,
2013-02-14 12:42:00,80.0,-99.9,30.08,East,88,13.0,18.0,-999,-99.99,,,-99.99,,2013-02-14 16:42:00,
2013-02-14 12:52:00,80.0,-99.9,30.08,East,81,11.0,20.0,-999,-99.99,,,-99.99,,2013-02-14 16:52:00,
2013-02-14 13:01:00,80.0,-99.9,30.07,ENE,66,11.0,18.0,-999,-99.99,,,-99.99,,2013-02-14 17:01:00,
2013-02-14 13:11:00,79.0,-99.9,30.07,East,83,12.0,18.0,-999,-99.99,,,-99.99,,2013-02-14 17:11:00,
2013-02-14 13:22:00,80.0,-99.9,30.07,East,79,12.0,19.0,-999,-99.99,,,-99.99,,2013-02-14 17:22:00,
2013-02-14 13:32:00,80.0,-99.9,30.06,ENE,69,9.0,14.0,-999,-99.99,,,-99.99,,2013-02-14 17:32:00,
2013-02-14 13:42:00,80.0,-99.9,30.06,ENE,77,9.0,16.0,-999,-99.99,,,-99.99,,2013-02-14 17:42:00,
2013-02-14 13:52:00,79.0,-99.9,30.05,ENE,74,10.0,15.0,-999,-99.99,,,-99.99,,2013-02-14 17:52:00,
2013-02-14 14:02:00,79.0,-99.9,30.05,East,85,11.0,19.0,-999,-99.99,,,-99.99,,2013-02-14 18:02:00,
2013-02-14 14:11:00,80.0,-99.9,30.05,East,81,11.0,19.0,-999,-99.99,,,-99.99,,2013-02-14 18:11:00,
2013-02-14 14:23:00,79.0,-99.9,30.05,ENE,76,9.0,16.0,-999,-99.99,,,-99.99,,2013-02-14 18:23:00,
2013-02-14 14:32:00,79.0,-99.9,30.04,ENE,75,11.0,17.0,-999,-99.99,,,-99.99,,2013-02-14 18:32:00,
2013-02-14 14:42:00,79.0,-99.9,30.04,East,80,11.0,20.0,-999,-99.99,,,-99.99,,2013-02-14 18:42:00,
2013-02-14 14:52:00,79.0,-99.9,30.04,East,87,13.0,17.0,-999,-99.99,,,-99.99,,2013-02-14 18:52:00,
2013-02-14 15:02:00,79.0,-99.9,30.04,East,89,14.0,19.0,-999,-99.99,,,-99.99,,2013-02-14 19:02:00,
2013-02-14 15:11:00,79.0,-99.9,30.03,East,81,12.0,18.0,-999,-99.99,,,-99.99,,2013-02-14 19:11:00,
2013-02-14 15:22:00,80.0,-99.9,30.03,East,82,12.0,18.0,-999,-99.99,,,-99.99,,2013-02-14 19:22:00,
2013-02-14 15:32:00,79.0,-99.9,30.03,ENE,75,10.0,20.0,-999,-99.99,,,-99.99,,2013-02-14 19:32:00,
2013-02-14 15:42:00,79.0,-99.9,30.02,East,85,12.0,20.0,-999,-99.99,,,-99.99,,2013-02-14 19:42:00,
2013-02-14 15:52:00,80.0,-99.9,30.03,ENE,73,8.0,18.0,-999,-99.99,,,-99.99,,2013-02-14 19:52:00,
2013-02-14 16:01:00,80.0,-99.9,30.03,ENE,73,8.0,18.0,-999,-99.99,,,-99.99,,2013-02-14 20:01:00,
2013-02-14 16:11:00,79.0,-99.9,30.03,ENE,77,11.0,16.0,-999,-99.99,,,-99.99,,2013-02-14 20:11:00,
2013-02-14 16:22:00,79.0,-99.9,30.03,ENE,62,12.0,19.0,-999,-99.99,,,-99.99,,2013-02-14 20:22:00,
2013-02-14 16:32:00,79.0,-99.9,30.02,ENE,62,13.0,22.0,-999,-99.99,,,-99.99,,2013-02-14 20:32:00,
2013-02-14 16:42:00,79.0,-99.9,30.02,East,80,10.0,18.0,-999,-99.99,,,-99.99,,2013-02-14 20:42:00,
2013-02-14 16:52:00,79.0,-99.9,30.02,ENE,75,9.0,18.0,-999,-99.99,,,-99.99,,2013-02-14 20:52:00,
2013-02-14 17:02:00,79.0,-99.9,30.02,East,79,12.0,20.0,-999,-99.99,,,-99.99,,2013-02-14 21:02:00,
2013-02-14 17:11:00,79.0,-99.9,30.03,East,82,11.0,16.0,-999,-99.99,,,-99.99,,2013-02-14 21:11:00,
2013-02-14 17:22:00,79.0,-99.9,30.02,East,88,15.0,21.0,-999,-99.99,,,-99.99,,2013-02-14 21:22:00,
2013-02-14 17:32:00,78.0,-99.9,30.02,East,85,14.0,20.0,-999,-99.99,,,-99.99,,2013-02-14 21:32:00,
2013-02-14 17:42:00,78.0,-99.9,30.02,East,81,11.0,19.0,-999,-99.99,,,-99.99,,2013-02-14 21:42:00,
2013-02-14 17:52:00,78.0,-99.9,30.02,East,88,15.0,18.0,-999,-99.99,,,-99.99,,2013-02-14 21:52:00,
2013-02-14 18:02:00,78.0,-99.9,30.02,ENE,77,10.0,17.0,-999,-99.99,,,-99.99,,2013-02-14 22:02:00,
2013-02-14 18:11:00,78.0,-99.9,30.03,East,84,11.0,15.0,-999,-99.99,,,-99.99,,2013-02-14 22:11:00,
2013-02-14 18:21:00,78.0,-99.9,30.02,East,87,13.0,19.0,-999,-99.99,,,-99.99,,2013-02-14 22:21:00,
2013-02-14 18:32:00,78.0,-99.9,30.03,East,79,10.0,18.0,-999,-99.99,,,-99.99,,2013-02-14 22:32:00,
2013-02-14 18:42:00,78.0,-99.9,30.03,East,94,13.0,17.0,-999,-99.99,,,-99.99,,2013-02-14 22:42:00,
2013-02-14 18:52:00,78.0,-99.9,30.02,East,92,13.0,18.0,-999,-99.99,,,-99.99,,2013-02-14 22:52:00,
2013-02-14 19:01:00,78.0,-99.9,30.02,East,95,14.0,19.0,-999,-99.99,,,-99.99,,2013-02-14 23:01:00,
2013-02-14 19:11:00,78.0,-99.9,30.02,East,100,14.0,19.0,-999,-99.99,,,-99.99,,2013-02-14 23:11:00,
2013-02-14 19:22:00,78.0,-99.9,30.03,East,99,15.0,18.0,-999,-99.99,,,-99.99,,2013-02-14 23:22:00,
2013-02-14 19:32:00,78.0,-99.9,30.03,East,93,14.0,17.0,-999,-99.99,,,-99.99,,2013-02-14 23:32:00,
2013-02-14 19:42:00,78.0,-99.9,30.03,ENE,78,8.0,18.0,-999,-99.99,,,-99.99,,2013-02-14 23:42:00,
2013-02-14 19:52:00,78.0,-99.9,30.03,East,94,11.0,16.0,-999,-99.99,,,-99.99,,2013-02-14 23:52:00,
2013-02-14 20:02:00,78.0,-99.9,30.03,East,100,15.0,18.0,-999,-99.99,,,-99.99,,2013-02-15 00:02:00,
2013-02-14 20:11:00,78.0,-99.9,30.03,East,99,13.0,17.0,-999,-99.99,,,-99.99,,2013-02-15 00:11:00,
2013-02-14 20:22:00,78.0,-99.9,30.04,East,92,11.0,16.0,-999,-99.99,,,-99.99,,2013-02-15 00:22:00,
2013-02-14 20:32:00,78.0,-99.9,30.04,East,94,13.0,15.0,-999,-99.99,,,-99.99,,2013-02-15 00:32:00,
2013-02-14 20:42:00,78.0,-99.9,30.04,East,92,11.0,17.0,-999,-99.99,,,-99.99,,2013-02-15 00:42:00,
2013-02-14 20:52:00,78.0,-99.9,30.05,East,99,13.0,15.0,-999,-99.99,,,-99.99,,2013-02-15 00:52:00,
2013-02-14 21:02:00,78.0,-99.9,30.05,East,100,13.0,16.0,-999,-99.99,,,-99.99,,2013-02-15 01:02:00,
2013-02-14 21:11:00,78.0,-99.9,30.05,East,88,11.0,15.0,-999,-99.99,,,-99.99,,2013-02-15 01:11:00,
2013-02-14 21:21:00,78.0,-99.9,30.05,East,100,13.0,17.0,-999,-99.99,,,-99.99,,2013-02-15 01:21:00,
2013-02-14 21:32:00,78.0,-99.9,30.05,East,100,13.0,17.0,-999,-99.99,,,-99.99,,2013-02-15 01:32:00,
2013-02-14 21:42:00,78.0,-99.9,30.05,ESE,104,13.0,17.0,-999,-99.99,,,-99.99,,2013-02-15 01:42:00,
2013-02-14 21:52:00,78.0,-99.9,30.05,East,97,13.0,17.0,-999,-99.99,,,-99.99,,2013-02-15 01:52:00,
2013-02-14 22:01:00,78.0,-99.9,30.05,East,97,12.0,15.0,-999,-99.99,,,-99.99,,2013-02-15 02:01:00,
2013-02-14 22:11:00,78.0,-99.9,30.06,East,98,12.0,18.0,-999,-99.99,,,-99.99,,2013-02-15 02:11:00,
2013-02-14 22:21:00,78.0,-99.9,30.06,ESE,103,11.0,15.0,-999,-99.99,,,-99.99,,2013-02-15 02:21:00,
2013-02-14 22:32:00,78.0,-99.9,30.06,ESE,106,13.0,16.0,-999,-99.99,,,-99.99,,2013-02-15 02:32:00,
2013-02-14 22:42:00,78.0,-99.9,30.06,ESE,109,11.0,15.0,-999,-99.99,,,-99.99,,2013-02-15 02:42:00,
2013-02-14 22:52:00,78.0,-99.9,30.06,ESE,104,11.0,13.0,-999,-99.99,,,-99.99,,2013-02-15 02:52:00,
2013-02-14 23:02:00,78.0,-99.9,30.06,ESE,108,11.0,15.0,-999,-99.99,,,-99.99,,2013-02-15 03:02:00,
2013-02-14 23:11:00,78.0,-99.9,30.06,ESE,108,11.0,15.0,-999,-99.99,,,-99.99,,2013-02-15 03:11:00,
2013-02-14 23:22:00,78.0,-99.9,30.06,ESE,117,8.0,13.0,-999,-99.99,,,-99.99,,2013-02-15 03:22:00,
2013-02-14 23:32:00,77.0,-99.9,30.07,ESE,123,10.0,11.0,-999,-99.99,,,-99.99,,2013-02-15 03:32:00,
2013-02-14 23:42:00,77.0,-99.9,30.07,SE,130,9.0,11.0,-999,-99.99,,,-99.99,,2013-02-15 03:42:00,
2013-02-14 23:52:00,77.0,-99.9,30.07,SE,126,9.0,11.0,-999,-99.99,,,-99.99,,2013-02-15 03:52:00,